Probability
0 0 0 0 0 0 0 0 0 1 4 7 11 14 18 23 27 28 31 34 36 35 33 30 26 24 23 23 23 25 30 32 31 25 19 15 13 11 10 9 7 6 4 3
0 0 0 0 0 0 0 0 1 2 4 8 13 18 21 25 28 30 31 32 32 32 31 28 25 23 24 25 27 28 29 29 29 27 21 17 15 13 13 13 11 9 6 4
0 0 0 0 0 0 0 1 2 3 6 12 18 23 26 28 31 33 31 28 26 25 25 25 21 20 22 27 32 33 30 27 28 28 25 22 20 18 17 17 16 11 7 4
0 0 0 0 0 0 0 1 3 5 10 17 22 27 30 30 31 32 30 26 21 18 18 19 17 17 20 26 32 34 31 27 27 28 26 24 23 20 18 18 16 12 7 5
0 0 0 0 0 0 1 2 5 9 15 19 23 26 27 25 26 28 28 23 18 14 13 15 17 17 19 23 28 30 28 26 26 26 25 23 22 20 19 19 16 12 9 9
0 0 0 1 1 1 2 3 6 11 16 19 19 19 19 19 22 26 27 24 18 13 14 16 18 19 20 22 24 25 24 23 24 25 24 22 22 20 18 17 15 12 11 10
0 0 1 2 3 1 1 3 5 9 14 16 14 12 13 17 21 25 26 24 19 17 18 18 18 20 23 23 23 21 20 21 23 23 21 20 20 19 15 13 12 11 10 8
0 1 2 3 3 1 1 2 5 7 11 14 13 12 12 14 17 20 21 20 20 20 19 17 15 18 21 22 21 19 18 19 20 20 18 17 19 18 14 12 13 13 10 8
1 1 2 3 3 2 3 4 6 9 13 15 14 13 11 10 12 14 15 15 17 18 16 13 13 15 18 18 17 17 17 15 15 16 17 16 16 15 14 13 14 14 12 9
2 2 2 3 4 4 5 7 9 13 15 15 13 11 10 9 9 9 11 12 14 14 12 10 10 12 14 13 13 15 13 10 10 12 13 12 11 10 10 10 11 12 11 9
2 2 3 4 5 5 6 9 12 15 14 12 10 9 8 8 8 8 9 10 11 10 8 7 7 7 8 8 9 10 8 6 6 8 7 6 6 5 5 6 7 7 7 7
1 1 1 3 4 4 6 8 10 12 11 9 8 7 7 7 8 8 8 8 8 7 5 4 4 4 5 5 6 5 4 3 4 4 3 3 3 3 3 4 3 3 3 3
0 0 0 1 3 3 3 5 6 6 6 6 6 6 6 6 6 7 6 6 5 4 3 3 3 3 4 5 5 3 1 1 2 2 2 2 3 3 3 3 2 1 1 1
0 0 0 1 2 2 2 4 4 4 4 4 4 3 3 3 4 5 4 4 4 3 3 3 3 3 4 4 3 1 0 0 0 1 2 2 3 3 3 3 3 2 1 1
0 0 0 0 1 2 3 4 5 4 3 2 1 1 1 1 2 3 3 3 3 3 3 3 3 3 2 2 1 0 0 0 0 0 1 1 2 2 3 3 3 3 3 2
0 0 0 0 0 1 2 3 3 3 2 1 0 0 0 0 2 3 3 2 2 2 2 2 2 1 1 0 0 0 0 0 0 0 0 0 1 1 1 2 2 2 2 2
0 0 0 0 0 0 0 1 1 1 1 0 0 0 0 0 1 2 2 1 1 1 1 1 1 0 0 0 0 0 0 0 0 0 0 0 0 0 0 1 1 1 1 1
0 0 0 0 0 0 0 0 0 0 0 0 0 0 0 0 0 1 1 0 0 0 0 0 0 0 0 0 0 0 0 0 0 0 0 0 0 0 0 0 1 1 1 0
0 0 0 0 0 0 0 0 0 0 0 1 0 0 0 0 0 0 0 0 0 0 0 0 0 0 0 0 0 0 0 0 0 0 0 0 0 0 0 0 1 1 1 0
0 0 0 0 0 0 0 0 0 0 0 0 0 0 0 0 0 0 0 0 0 0 0 0 0 0 0 0 0 0 0 0 0 0 0 0 0 0 0 0 0 1 1 1
0 0 0 0 0 0 0 0 0 0 0 0 0 0 0 0 0 0 0 0 0 0 0 0 0 0 0 0 0 0 0 0 0 0 0 0 0 0 0 0 0 0 0 0
0 0 0 0 0 0 0 0 0 0 0 0 0 0 0 0 0 0 0 0 0 0 0 0 0 0 0 0 0 0 0 0 0 0 0 0 0 0 0 0 0 0 0 0
0 0 0 0 0 0 0 0 0 0 0 0 0 0 0 0 0 0 0 0 0 0 0 0 0 0 0 0 0 0 0 0 0 0 0 0 0 0 0 0 0 0 0 0
0 0 0 0 0 0 0 0 0 0 0 0 0 0 0 0 0 0 0 0 0 0 0 0 0 0 0 0 0 0 0 0 0 0 0 0 0 0 0 0 0 0 0 0
0 0 0 0 0 0 0 0 0 0 0 0 0 0 0 0 0 0 0 0 0 0 0 0 0 0 0 0 0 0 0 0 0 0 0 0 0 0 0 0 0 0 0 0
0 0 0 0 0 0 0 0 0 0 0 0 0 0 0 0 0 0 0 0 0 0 0 0 0 0 0 0 0 0 0 0 0 0 0 0 0 0 0 0 0 0 0 0
0 0 0 0 0 0 0 0 0 0 0 0 0 0 0 0 0 0 0 0 0 0 0 0 0 0 0 0 0 0 0 0 0 0 0 0 0 0 0 0 0 0 0 0
Wind_Speed
2 2 3 3 4 5 5 7 8 8 6 6 3 1 0 1 3 4 4 4 4 4 3 3 3 2 3 3 3 4 5 5 5 5 5 4 4 4 4 4 4 3 3 2
1 1 2 2 2 4 3 4 4 4 4 3 1 2 3 3 4 4 4 4 4 4 4 3 2 2 2 3 3 4 4 4 4 4 4 4 4 4 4 3 3 3 3 3
2 2 3 1 2 3 3 3 6 6 6 4 3 3 2 2 3 3 3 3 4 3 2 2 1 2 2 2 3 4 3 3 3 4 4 4 4 4 4 3 3 3 3 3
3 3 3 6 2 3 4 1 2 3 3 5 5 4 3 2 3 4 3 3 3 3 2 2 2 3 2 3 3 3 3 2 2 3 3 3 4 3 3 3 4 3 3 3
4 4 2 3 1 3 3 1 0 4 5 5 5 5 3 2 2 3 3 3 2 2 1 2 3 3 3 3 3 3 3 3 2 3 4 4 4 3 3 4 4 4 3 3
5 5 5 5 2 1 4 1 1 5 7 6 5 3 2 1 3 4 4 3 3 2 3 4 3 3 4 3 3 2 2 2 3 3 4 4 4 4 4 4 4 4 4 4
4 3 5 4 3 1 3 6 3 5 6 5 3 4 3 3 3 4 4 3 3 4 4 3 2 3 5 3 2 1 2 3 3 4 5 5 5 4 5 5 5 5 5 4
4 3 5 3 1 3 4 1 3 4 4 4 5 5 5 4 4 4 4 4 4 5 4 3 3 4 4 3 2 2 3 4 4 4 4 5 6 5 5 5 5 5 4 3
5 5 3 2 2 2 2 3 2 3 5 7 7 5 5 4 3 3 3 3 4 4 4 4 4 4 4 2 2 3 4 5 5 6 5 5 6 6 5 4 4 3 3 3
1 1 2 1 1 2 2 3 3 5 6 7 7 6 5 3 3 3 3 3 3 4 4 4 4 4 3 3 3 5 6 6 5 7 7 6 5 5 4 3 3 4 3 3
1 1 2 3 3 3 4 6 6 6 5 6 8 7 5 3 3 2 2 2 3 3 3 3 3 4 4 3 4 6 6 6 6 6 6 6 6 5 4 3 3 3 3 3
5 5 3 2 1 2 5 5 5 7 6 5 6 6 5 3 2 2 2 2 3 3 3 3 4 4 4 3 4 6 5 5 4 4 5 5 6 7 11 9 11 10 7 6
3 2 2 2 0 1 3 4 4 5 6 6 5 6 5 3 2 2 3 3 3 2 2 3 4 4 4 4 4 5 5 4 4 4 4 5 5 5 5 8 12 11 10 9
3 3 2 1 1 1 4 5 6 6 5 5 5 5 5 4 3 3 3 2 3 3 3 4 4 4 3 4 5 6 6 6 5 4 4 4 5 5 5 5 5 5 7 9
1 2 4 3 3 3 5 6 7 6 5 5 4 5 4 5 4 4 3 3 4 5 4 4 5 4 4 4 5 6 5 4 4 4 4 4 5 5 5 6 5 5 4 5
2 3 5 5 5 5 6 6 6 5 4 4 4 4 4 5 5 5 5 4 5 4 4 4 4 3 3 4 5 5 5 7 6 5 5 4 5 5 5 5 5 5 4 4
5 4 5 5 5 4 4 5 5 5 5 5 4 5 6 6 6 5 4 4 5 4 4 4 3 3 4 4 5 4 4 5 8 5 4 4 4 5 5 5 5 4 3 3
6 6 6 7 6 5 5 5 5 5 5 5 5 6 6 6 5 4 4 5 6 5 4 3 4 4 4 4 4 4 4 4 4 4 4 4 4 4 4 4 5 5 4 4
4 5 5 5 5 6 5 5 5 5 5 5 6 6 6 5 5 4 4 5 5 4 3 3 4 5 4 4 4 3 4 5 5 4 4 5 4 4 4 4 4 4 4 4
4 5 6 5 5 6 6 5 5 5 5 5 6 6 6 5 4 5 5 4 2 1 1 3 4 4 3 4 5 4 5 5 5 4 4 4 4 4 4 4 4 4 4 3
5 6 6 6 6 5 6 6 6 6 5 5 6 6 6 4 4 4 4 3 2 2 3 4 3 3 3 4 5 4 4 4 4 4 4 4 4 4 4 4 4 3 3 4
5 6 6 6 7 6 5 5 5 6 5 5 5 6 6 5 5 4 3 2 2 3 3 3 3 4 4 5 4 4 4 4 4 3 3 3 3 3 3 4 3 3 3 4
5 5 6 6 7 6 5 5 5 5 5 5 5 5 5 4 3 3 2 1 2 4 3 3 4 5 5 4 4 4 4 4 4 3 3 3 3 3 3 4 3 3 3 3
5 5 5 6 6 6 5 4 4 4 5 4 4 4 5 4 3 2 2 4 4 5 3 3 5 6 5 3 3 3 3 4 3 3 3 3 3 4 4 4 3 3 3 4
5 6 6 6 6 4 5 5 5 5 5 4 4 4 3 3 3 3 3 4 5 5 3 4 5 5 4 3 3 3 3 3 3 3 4 4 4 4 3 3 3 3 3 3
5 4 4 4 4 4 4 4 4 4 5 4 3 3 3 3 4 3 3 4 5 4 3 3 3 4 3 3 3 3 3 3 3 3 4 4 4 4 4 3 3 3 3 2
5 4 4 4 3 3 4 4 5 4 4 5 4 3 3 3 4 4 4 4 4 4 3 3 3 3 3 3 3 3 3 3 3 3 3 3 3 3 3 4 3 2 2 2
Wind_Direction
188 192 161 160 165 157 152 168 170 206 206 234 236 219 64 58 71 78 82 88 100 108 109 112 120 131 146 152 146 151 155 171 187 189 177 165 164 166 161 161 170 168 159 150
56 55 136 104 146 157 156 158 167 162 227 235 180 99 81 83 93 89 83 83 83 90 99 108 129 133 128 130 137 141 152 174 172 166 158 158 160 156 151 150 149 142 143 138
189 294 70 304 224 167 164 180 164 185 213 162 141 135 136 116 104 102 87 85 83 78 84 86 82 96 108 120 121 124 142 158 154 147 156 165 153 144 146 145 135 123 120 126
126 102 193 243 254 150 137 177 196 182 172 158 154 130 89 87 107 94 80 72 62 49 40 42 65 69 81 98 109 116 121 118 120 137 150 139 129 142 142 133 130 123 119 117
118 140 250 284 174 142 135 299 238 142 126 117 119 81 39 42 93 102 85 78 70 61 70 59 63 77 87 82 90 99 106 109 126 138 138 133 138 143 134 124 119 116 114 113
119 136 204 230 262 240 114 278 243 149 149 149 129 122 220 132 89 81 72 72 68 63 72 63 45 73 90 84 87 87 95 107 110 118 123 122 130 123 113 113 112 108 98 93
130 155 246 255 282 122 155 223 192 164 164 159 161 173 154 105 79 82 80 75 74 70 66 53 43 74 82 80 76 73 86 95 96 106 115 119 117 112 111 110 106 100 96 89
133 147 236 290 70 166 211 215 138 146 145 129 118 112 110 102 94 85 78 71 71 72 59 43 52 77 80 70 60 79 90 89 89 97 111 114 111 106 105 110 108 106 101 84
174 196 240 287 243 265 161 131 125 133 126 127 122 118 110 99 85 73 69 65 62 71 61 42 43 66 82 52 66 83 85 89 92 89 84 94 105 108 109 113 114 109 100 92
98 309 327 354 25 41 78 108 109 122 126 126 124 120 107 94 79 70 63 62 61 66 63 44 37 45 52 47 69 87 88 84 88 90 85 78 78 83 94 100 111 116 108 103
85 300 14 10 27 72 81 92 96 95 105 120 121 116 110 98 87 82 79 74 74 79 74 54 50 51 47 57 80 89 90 90 87 87 91 80 70 61 70 61 82 111 111 117
196 206 179 218 248 129 112 110 117 112 99 102 116 120 112 102 89 90 89 83 83 83 79 68 62 52 42 53 86 100 97 94 92 91 93 96 97 79 57 62 66 70 79 94
198 182 175 180 170 132 119 121 117 115 121 119 113 115 113 108 91 83 82 86 97 94 86 82 75 63 41 55 82 94 101 100 99 100 104 107 105 105 91 64 62 63 69 79
166 133 119 126 127 113 118 110 99 92 93 103 109 108 109 105 94 80 73 84 102 96 86 82 75 58 42 65 85 92 95 99 104 105 105 109 110 107 105 102 88 66 58 71
183 156 158 138 113 104 106 107 101 96 91 87 93 97 102 105 101 91 82 88 88 83 78 73 70 52 42 68 83 89 93 97 100 101 101 105 106 104 102 101 101 96 86 71
125 113 126 123 124 118 114 114 115 116 110 104 95 94 101 104 99 88 81 87 91 84 74 72 65 49 56 76 84 83 90 104 105 105 101 102 104 105 105 105 104 102 99 99
142 144 136 133 138 129 124 125 132 130 120 113 114 114 110 104 95 87 79 79 85 81 74 76 68 56 63 78 88 91 93 101 103 101 104 108 109 112 112 112 111 106 100 94
172 168 165 159 150 137 126 119 124 127 125 120 116 114 112 111 113 107 96 88 81 69 56 60 68 70 68 76 88 95 99 101 102 101 102 104 106 109 109 110 113 112 103 92
157 156 157 157 152 140 137 134 134 129 122 120 119 117 110 105 107 104 96 89 85 74 47 58 74 80 77 85 94 100 107 105 100 97 99 103 103 106 110 111 110 110 113 108
133 136 142 143 138 133 134 132 128 122 118 119 118 113 105 103 107 104 95 84 73 94 85 80 79 81 82 91 93 96 102 106 106 104 102 103 106 105 106 110 112 113 114 112
136 139 141 139 130 127 132 134 131 126 121 120 125 125 118 111 105 104 101 86 42 68 83 85 84 84 85 92 90 94 97 100 103 106 109 109 109 108 108 111 110 111 114 113
136 137 139 136 131 131 131 130 128 126 120 118 120 120 118 115 107 95 83 102 95 84 84 84 86 91 95 95 95 96 96 97 98 103 109 115 118 117 115 115 114 115 115 116
135 135 134 134 137 133 120 120 124 127 129 132 134 132 128 124 123 123 109 76 93 87 82 82 92 91 95 95 100 102 102 103 102 104 110 115 119 121 121 118 115 116 119 120
129 131 129 125 120 119 121 123 119 120 122 121 125 129 127 118 97 88 113 108 101 95 89 91 91 89 88 92 99 101 102 102 104 104 103 103 106 109 113 114 113 114 118 120
126 126 126 127 129 135 138 128 116 113 113 109 105 103 106 117 125 117 107 107 105 99 93 86 89 89 90 95 101 104 104 107 114 117 115 115 114 114 116 119 121 123 124 124
122 126 134 142 142 139 137 134 132 134 128 119 106 102 101 100 105 106 103 100 97 96 94 87 87 88 92 96 100 105 107 109 110 111 117 119 120 120 122 123 118 116 118 119
110 111 112 109 110 123 132 138 138 139 138 133 124 116 110 105 105 105 102 98 94 90 87 85 90 94 96 97 97 98 100 102 105 107 113 116 120 124 128 128 122 116 115 118